User: anonymous   Login
Location: *
(35.8942°N, 23.3025°E)
Time: 02:38:17
(UTC+00:00)
Language:

QB50P2 - Orbit

View from above orbital plane
View from above orbital plane
View from above satellite
View from above satellite

Ground track
Ground track

The orbit data is extracted from the following two-line orbital elements,

1 40032U 14033Y   24107.86392948  .00015852  00000-0  13702-2 0  9999
2 40032  98.0012  58.7669 0009947  11.6191 348.5257 14.97254437534013
Epoch (UTC): 16 April 2024 20:44:03
Eccentricity: 0.0009947
inclination: 98.0012°
perigee height: 568 km
apogee height: 582 km
right ascension of ascending node: 58.7669°
argument of perigee: 11.6191°
revolutions per day: 14.97254437
mean anomaly at epoch: 348.5257°
orbit number at epoch: 53401

The dashed part of the orbit path shows where the satellite is in the earth's shadow,  

DLR